Regional Weather Roundup
Issued by NWS

Home | Current Version | Previous Version | Graphics & Text | Print | Product List | Glossary On
Versions: 1 2 3 4 5 6 7 8 9 10 11 12 13 14 15 16 17 18 19 20 21 22 23 24 25 26 27 28 29 30 31 32 33 34 35 36 37 38 39 40 41 42 43 44 45 46 47 48 49 50
000
ASUS43 KMKX 221821
RWRWI

WISCONSIN REGIONAL WEATHER ROUNDUP
NATIONAL WEATHER SERVICE MILWAUKEE/SULLIVAN WI
100 PM CDT MON MAY 22 2017

NOTE: "FAIR" INDICATES FEW OR NO CLOUDS BELOW 12,000 FEET WITH NO
SIGNIFICANT WEATHER AND/OR OBSTRUCTIONS TO VISIBILITY.

WIZ001-002-006>008-014>016-023>028-221900-
NORTHWEST WISCONSIN

CITY           SKY/WX    TMP DP  RH WIND       PRES   REMARKS
SUPERIOR ARPT  NOT AVBL
ASHLAND        CLOUDY    53  44  71 SW15      29.78S
6HR MIN TEMP:  47; 6HR MAX TEMP:  54; 6HR PCP:  0.01;

HAYWARD        CLOUDY    52  41  66 SW13G18   29.81S
6HR MIN TEMP:  45; 6HR MAX TEMP:  52;

SIREN          PTSUNNY   54  42  63 W8        29.83S
6HR MIN TEMP:  45; 6HR MAX TEMP:  55;

CUMBERLAND     CLOUDY    54  41  62 W14       29.82F
RICE LAKE      PTSUNNY   57  42  57 W14G23    29.84S
6HR MIN TEMP:  44; 6HR MAX TEMP:  57;

CHETEK         CLOUDY    58  42  55 W7G18     29.82S
6HR MIN TEMP:  44; 6HR MAX TEMP:  59;

LADYSMITH      CLOUDY    58  43  58 SW16G23   29.82F
6HR MIN TEMP:  46; 6HR MAX TEMP:  58;

EAU CLAIRE     MOSUNNY   63  43  48 W13G21    29.82F
6HR MIN TEMP:  45; 6HR MAX TEMP:  63;

MENOMONIE      MOSUNNY   62  42  48 W12       29.83S
6HR MIN TEMP:  46; 6HR MAX TEMP:  62; 6HR PCP:  0.01;

NEW RICHMOND   PTSUNNY   59  41  51 W14       29.84R
6HR MIN TEMP:  45; 6HR MAX TEMP:  60;

OSCEOLA        PTSUNNY   58  44  59 W13G18    29.86F
6HR MIN TEMP:  46; 6HR MAX TEMP:  60;

$$

WIZ003>005-009-010-017-018-221900-
NORTH CENTRAL WISCONSIN

CITY           SKY/WX    TMP DP  RH WIND       PRES   REMARKS
MANITOWISH WTR CLOUDY    49  44  82 W12       29.79S
6HR MIN TEMP:  43; 6HR MAX TEMP:  49;

ARBOR VITAE    CLOUDY    52  43  72 SW9G16    29.79S
6HR MIN TEMP:  44; 6HR MAX TEMP:  52;

WOODRUFF       CLOUDY    52  43  72 SW9G16    29.79S
6HR MIN TEMP:  44; 6HR MAX TEMP:  52;

RHINELANDER    CLOUDY    56  41  57 W12G20    29.80F
6HR MIN TEMP:  45; 6HR MAX TEMP:  56; 6HR PCP: TRACE;

EAGLE RIVER    CLOUDY    51  39  62 W15G22    29.79S
6HR MIN TEMP:  44; 6HR MAX TEMP:  52;

LAND O LAKES   CLOUDY    51  40  66 W9        29.80S
PHILLIPS       CLOUDY    52  43  71 W7        29.79S
6HR MIN TEMP:  42; 6HR MAX TEMP:  52;

TOMAHAWK       CLOUDY    54  41  60 W10G17    29.80F
6HR MIN TEMP:  43; 6HR MAX TEMP:  55;

MEDFORD        CLOUDY    56  41  56 SW15G23   29.81S
6HR MIN TEMP:  43; 6HR MAX TEMP:  57;

MERRILL        CLOUDY    58  43  56 W16G22    29.81F
6HR MIN TEMP:  44; 6HR MAX TEMP:  58;

$$

WIZ029-030-035-036-043>047-221900-
CENTRAL WISCONSIN

CITY           SKY/WX    TMP DP  RH WIND       PRES   REMARKS
WAUSAU         PTSUNNY   59  42  53 W13G22    29.80F
6HR MIN TEMP:  45; 6HR MAX TEMP:  60;

MOSINEE        PTSUNNY   61  45  55 SW17G23   29.84F
MARSHFIELD     MOSUNNY   62  43  49 W12G25    29.82F
6HR MIN TEMP:  44; 6HR MAX TEMP:  62;

STEVENS POINT  MOSUNNY   62  41  46 W12       29.83F
6HR MIN TEMP:  44; 6HR MAX TEMP:  62;

WAUPACA        MOSUNNY   67  43  41 SW15G26   29.84F
WAUTOMA        MOSUNNY   66  45  46 MISG      29.85F
6HR MIN TEMP:  47; 6HR MAX TEMP:  66;

WISC RAPIDS    MOSUNNY   65  44  46 SW16G22   29.85F
6HR MIN TEMP:  46; 6HR MAX TEMP:  67;

CAMP DOUGLAS   MOSUNNY   66  45  45 SW9G24    29.84F
$$

WIZ011>013-019>022-031-037>040-048>050-221900-
NORTHEAST WISCONSIN

CITY           SKY/WX    TMP DP  RH WIND       PRES   REMARKS
ANTIGO         CLOUDY    55  43  64 W16G24    29.82F
6HR MIN TEMP:  42; 6HR MAX TEMP:  56;

SHAWANO        PTSUNNY   65  42  44 SW13G22   29.83F
6HR MIN TEMP:  48; 6HR MAX TEMP:  65;

OCONTO         MOSUNNY   62  42  46 W13G29    29.83F
6HR MIN TEMP:  47; 6HR MAX TEMP:  62;

STURGEON BAY   MOSUNNY   60  43  53 W14G23    29.85F
6HR MIN TEMP:  47; 6HR MAX TEMP:  60; 6HR PCP: TRACE;

GREEN BAY      PTSUNNY   62  47  57 SW13      29.85F
6HR MIN TEMP:  48; 6HR MAX TEMP:  62;

MANITOWOC      PTSUNNY   63  44  50 W14G25    29.88F
6HR MIN TEMP:  49; 6HR MAX TEMP:  63;

APPLETON       PTSUNNY   63  43  48 SW14G21   29.85F
CLINTONVILLE   PTSUNNY   64  41  42 SW16G22   29.84F
OSHKOSH        SUNNY     64  46  52 SW15G21   29.86F
6HR MIN TEMP:  48; 6HR MAX TEMP:  64;

$$

WIZ032>034-041-042-053>061-221900-
SOUTHWEST WISCONSIN

CITY           SKY/WX    TMP DP  RH WIND       PRES   REMARKS
LA CROSSE      SUNNY     67  50  54 S14       29.85F
6HR MIN TEMP:  50; 6HR MAX TEMP:  68;

SPARTA         SUNNY     66  46  49 W8        29.85F
6HR MIN TEMP:  46; 6HR MAX TEMP:  66;

VIROQUA        SUNNY     62  49  62 N10       29.88F
6HR MIN TEMP:  45; 6HR MAX TEMP:  62;

BOSCOBEL       MOSUNNY   60  52  74 SW8       29.89F
6HR MIN TEMP:  47; 6HR MAX TEMP:  60; 6HR PCP:  0.02;

PRAIRIE DU CHI MOSUNNY   58  51  78 S5        29.88F
6HR MIN TEMP:  48; 6HR MAX TEMP:  58; 6HR PCP:  0.06;

PLATTEVILLE    MOSUNNY   60  53  76 S9        29.92F
6HR MIN TEMP:  46; 6HR MAX TEMP:  60;

$$

WIZ056-057-062-063-064-067-068-221900-
SOUTH CENTRAL WISCONSIN

CITY           SKY/WX    TMP DP  RH WIND       PRES   REMARKS
REEDSBURG      PTSUNNY   58  49  70 SW10      29.88F
6HR MIN TEMP:  46; 6HR MAX TEMP:  61;

BARABOO/DELLS  PTSUNNY   59  47  65 SW15G21   29.88F
6HR MIN TEMP:  46; 6HR MAX TEMP:  61;

LONE ROCK      PTSUNNY   55  49  80 S3        29.90F
6HR MIN TEMP:  47; 6HR MAX TEMP:  60; 6HR PCP: TRACE;

MINERAL POINT  CLOUDY    59  54  82 S7        29.91F
MADISON        CLOUDY    55  49  80 VRB5      29.92F
6HR MIN TEMP:  47; 6HR MAX TEMP:  61; 6HR PCP: TRACE;

MIDDLETON      CLOUDY    55  50  81 SW12G17   29.93F
6HR MIN TEMP:  49; 6HR MAX TEMP:  64;

WATERTOWN      LGT RAIN  59  51  74 SW13G22   29.92S
6HR MIN TEMP:  47; 6HR MAX TEMP:  65;

MONROE         LGT RAIN  55  50  82 SW8       29.95F
JANESVILLE     PTSUNNY   64  48  55 W13G18    29.95S
$$

WIZ051-052-058>065-066-070>072-221900-
SOUTHEAST WISCONSIN

CITY           SKY/WX    TMP DP  RH WIND       PRES   REMARKS
MILWAUKEE      PTSUNNY   65  45  48 SW12G25   29.94F
6HR MIN TEMP:  51; 6HR MAX TEMP:  67;

WAUKESHA       PTSUNNY   61  45  55 SW14G24   29.95S
MILWAUKEE/TIMM MOSUNNY   63  43  48 SW16G24   29.93F
RACINE         CLOUDY    64  45  49 SW13G22   29.95F
6HR MIN TEMP:  49; 6HR MAX TEMP:  66;

KENOSHA        MOSUNNY   67  48  50 W21G32    29.95S
6HR MIN TEMP:  49; 6HR MAX TEMP:  68;

FOND DU LAC    MOSUNNY   65  46  50 SW12G23   29.87F
6HR MIN TEMP:  48; 6HR MAX TEMP:  65;

SHEBOYGAN      MOSUNNY   65  47  52 SW17      29.89F
6HR MIN TEMP:  49; 6HR MAX TEMP:  65;

WEST BEND      MOSUNNY   63  45  51 SW16G24   29.89F
JUNEAU         PTSUNNY   61  47  60 SW17      29.92S
6HR MIN TEMP:  45; 6HR MAX TEMP:  63;

$$

LSZ147-162-221900-
LAKE SUPERIOR

STATION/POSITION TIME  TEMP    WIND        PRES    WAVE
                       AIR SEA DIR/SP/G            HT/PER
                 (UTC) (F)     (DEG/KT/KT) (MB)    (FT/S)
W MID LAKE BUOY  1750   41 37  230/ 12/ 12 1007.9R   2/ 4
DEVILS ISLAND    1800   45     240/ 16/ 18 1008.1R
SAXON HARBOR     1740   54     240/  7/ 15 1007.8S
$$

LMZ867-665-643>646-221900-
LAKE MICHIGAN

STATION/POSITION TIME  TEMP    WIND        PRES    WAVE
                       AIR SEA DIR/SP/G            HT/PER
                 (UTC) (F)     (DEG/KT/KT) (MB)    (FT/S)
CHAMBERS ISLAND  1740   58     210/  7/ 15 1009.8S
N MID LAKE BUOY  1750   42 39  190/ 12/ 14 1011.4F   2/ 5
NORTHPORT PIER   1740   58     280/  8/ 17 1009.8F
KEWAUNEE LAKESHO 1754   61     250/ 12/ 19 1010.8F
SHEBOYGAN LAKESH 1800   61     230/ 16/ 21 1012.0F
PORT WASHINGTON  1800   67     240/ 14/ 22 1013.2
ATWATER



USA.gov is the U.S. government's official web portal to all federal, state and local government web resources and services.